Charlotte, NC

3:02 AM EST on December 13, 2017 (GMT -0500)
Charlotte-Douglas International

Weather History for KCLT - December, 2012

Change the Weather History Date:

Thursday, December 13, 2012

  Actual Average Record
Temperature  
Mean Temperature 46 °F 43 °F  
Max Temperature 54 °F 53 °F 77 °F (2007)
Min Temperature 38 °F 32 °F 2 °F (1962)
Degree Days  
Heating Degree Days 19 22  
Month to date heating degree days 134 270  
Since 1 July heating degree days 820 906  
Cooling Degree Days 0 0  
Month to date cooling degree days 0 0  
Year to date cooling degree days 1790 1517  
Moisture  
Dew Point 26 °F    
Average Humidity 50    
Maximum Humidity 65    
Minimum Humidity 35    
Precipitation  
Precipitation 0.00 in 0.10 in 1.78 in (1885)
Month to date precipitation 0.24 1.39  
Year to date precipitation 30.09 39.77  
Snow  
Snow 0.00 in 0.00 in 2.50 in (1945)
Month to date snowfall 0.0 0.0  
Since 1 July snowfall 0.0 0.1  
Snow Depth 0.00 in    
Sea Level Pressure  
Sea Level Pressure 30.34 in    
Wind  
Wind Speed 9 mph (NNE)    
Max Wind Speed 18 mph    
Max Gust Speed 24 mph    
Visibility 10 miles    
Events      
T = Trace of Precipitation, MM = Missing Value Source: NWS Daily Summary

Daily Weather History Graph

Daily Weather History Graph

Search for Another Location

Airport or City:

Trip Planner

Search our weather history database for the weather conditions in past years. The results will help you decide how hot, cold, wet, or windy it might be!

Date:

Astronomy

Dec. 13, 2012 Rise Set
Actual Time 7:23 AM EST 5:12 PM EST
Civil Twilight 6:55 AM EST 5:40 PM EST
Nautical Twilight 6:23 AM EST 6:12 PM EST
Astronomical Twilight 5:53 AM EST 6:43 PM EST
Moon 7:31 AM EST 5:52 PM EST
Length of Visible Light 10h 45m
Length of Day
9h 48m
New Moon, 0% of the Moon is Illuminated
Dec 13
New Moon
Dec 20
First Quarter
Dec 28
Full
Jan 4
Last Quarter
Jan 11
New

Hourly Weather History & Observations

Time (EST) Temp. Windchill Dew Point Humidity Pressure Visibility Wind Dir Wind Speed Gust Speed Precip Events Conditions
12:52 AM 44.1 °F 38.6 °F 30.0 °F 58% 30.30 in 10.0 mi NE 10.4 mph - N/A   Overcast
1:52 AM 43.0 °F 36.0 °F 30.9 °F 62% 30.24 in 10.0 mi East 13.8 mph - N/A   Overcast
2:52 AM 43.0 °F 39.5 °F 30.0 °F 60% 30.28 in 10.0 mi NNE 5.8 mph - N/A   Overcast
3:52 AM 43.0 °F 37.2 °F 28.0 °F 56% 30.29 in 10.0 mi North 10.4 mph 20.7 mph N/A   Overcast
4:29 AM 42.8 °F 37.0 °F 28.4 °F 57% 30.29 in 10.0 mi North 10.4 mph - N/A   Overcast
4:52 AM 42.1 °F 34.5 °F 30.0 °F 62% 30.31 in 10.0 mi North 15.0 mph 23.0 mph N/A   Overcast
5:08 AM 41.0 °F 33.9 °F 30.2 °F 65% 30.30 in 10.0 mi NNE 12.7 mph 24.2 mph N/A   Overcast
5:52 AM 41.0 °F 34.7 °F 30.0 °F 65% 30.33 in 10.0 mi NNE 10.4 mph - N/A   Overcast
6:52 AM 41.0 °F 33.1 °F 28.0 °F 60% 30.34 in 10.0 mi NNE 15.0 mph 20.7 mph N/A   Overcast
7:52 AM 42.1 °F 35.7 °F 27.0 °F 55% 30.36 in 10.0 mi NNE 11.5 mph - N/A   Overcast
8:52 AM 43.0 °F 36.4 °F 26.1 °F 51% 30.38 in 10.0 mi NE 12.7 mph - N/A   Overcast
9:52 AM 46.0 °F 41.0 °F 26.1 °F 46% 30.39 in 10.0 mi NNE 10.4 mph - N/A   Overcast
10:52 AM 46.0 °F 41.0 °F 26.1 °F 46% 30.40 in 10.0 mi North 10.4 mph - N/A   Overcast
11:52 AM 50.0 °F - 25.0 °F 38% 30.38 in 10.0 mi North 10.4 mph 16.1 mph N/A   Scattered Clouds
12:52 PM 52.0 °F - 26.1 °F 37% 30.36 in 10.0 mi ENE 9.2 mph - N/A   Scattered Clouds
1:52 PM 52.0 °F - 26.1 °F 37% 30.34 in 10.0 mi ENE 5.8 mph - N/A   Clear
2:52 PM 53.1 °F - 26.1 °F 35% 30.33 in 10.0 mi Variable 6.9 mph 18.4 mph N/A   Clear
3:52 PM 53.1 °F - 27.0 °F 37% 30.32 in 10.0 mi NNE 9.2 mph - N/A   Clear
4:52 PM 50.0 °F - 26.1 °F 39% 30.33 in 10.0 mi NNE 5.8 mph - N/A   Clear
6:52 PM 44.6 °F 41.4 °F 24.8 °F 46% 30.34 in 10.0 mi Variable 5.8 mph - N/A   Clear
7:52 PM 39.9 °F 35.8 °F 23.0 °F 51% 30.36 in 10.0 mi NNE 5.8 mph - N/A   Clear
8:52 PM 44.1 °F 40.1 °F 21.0 °F 40% 30.35 in 10.0 mi NNE 6.9 mph - N/A   Clear
9:52 PM 39.0 °F 34.8 °F 21.0 °F 49% 30.36 in 10.0 mi NNE 5.8 mph - N/A   Clear
10:52 PM 42.1 °F 38.4 °F 19.9 °F 41% 30.36 in 10.0 mi NE 5.8 mph - N/A   Clear
11:52 PM 39.9 °F 35.8 °F 21.0 °F 47% 30.36 in 10.0 mi NE 5.8 mph - N/A   Clear